Location: Bogotá
(4.6533°N, 74.0837°W)
Time: 21:20:51
(UTC+00:00)

ISS - Pass Details

Date: 05 April 2024
Orbit: 413 x 419 km, 51.6° (Epoch: 13 April)

Event Time Altitude Azimuth Distance (km) Brightness Sun altitude
Rises 23:37:21 0° 352° (N) 2,343 0.2 -9.0°
Reaches altitude 10° 23:40:12 10° 19° (NNE) 1,484 -1.1 -9.7°
Maximum altitude 23:42:02 14° 53° (NE) 1,269 -1.7 -10.2°
Enters shadow 23:42:58 13° 71° (ENE) 1,330 -1.8 -10.4°
